QPF
0.00 0.00 0.00 0.00 0.00 0.00 0.00 0.00 0.00 0.00 0.00 0.00 0.00 0.00 0.00 0.00 0.00 0.00 0.00 0.00 0.00 0.00 0.00 0.00 0.00 0.00 0.00 0.00 0.00 0.00 0.00 0.00 0.00 0.00 0.00 0.00 0.00 0.00 0.00 0.00 0.00 0.00 0.00 0.00 0.00 0.00 0.00 0.00 0.00 0.00 0.01 0.01 0.00 0.00
0.00 0.00 0.00 0.00 0.00 0.00 0.00 0.00 0.00 0.00 0.00 0.00 0.00 0.00 0.00 0.00 0.00 0.00 0.00 0.00 0.00 0.00 0.00 0.00 0.00 0.00 0.00 0.00 0.00 0.00 0.00 0.00 0.00 0.00 0.00 0.00 0.00 0.00 0.00 0.00 0.00 0.00 0.00 0.00 0.00 0.00 0.00 0.00 0.00 0.00 0.00 0.00 0.00 0.00
0.01 0.00 0.00 0.00 0.00 0.00 0.00 0.00 0.00 0.00 0.00 0.00 0.00 0.00 0.00 0.00 0.00 0.00 0.00 0.00 0.00 0.00 0.00 0.00 0.00 0.00 0.00 0.00 0.00 0.00 0.00 0.00 0.00 0.00 0.00 0.00 0.00 0.00 0.00 0.00 0.00 0.00 0.00 0.00 0.00 0.00 0.00 0.00 0.00 0.00 0.00 0.00 0.00 0.00
0.01 0.01 0.01 0.00 0.00 0.00 0.00 0.00 0.00 0.00 0.00 0.00 0.00 0.00 0.00 0.00 0.00 0.00 0.00 0.00 0.00 0.00 0.00 0.00 0.00 0.00 0.00 0.00 0.00 0.00 0.00 0.00 0.00 0.00 0.00 0.00 0.00 0.00 0.00 0.00 0.00 0.00 0.00 0.00 0.00 0.00 0.00 0.00 0.00 0.00 0.00 0.00 0.00 0.00
0.00 0.01 0.01 0.00 0.00 0.00 0.00 0.00 0.00 0.00 0.00 0.00 0.00 0.00 0.00 0.00 0.00 0.00 0.00 0.00 0.00 0.00 0.00 0.00 0.00 0.00 0.00 0.00 0.00 0.00 0.00 0.00 0.00 0.00 0.00 0.00 0.00 0.00 0.00 0.00 0.00 0.00 0.00 0.00 0.00 0.00 0.00 0.00 0.00 0.00 0.00 0.00 0.00 0.00
0.01 0.01 0.01 0.01 0.00 0.00 0.00 0.00 0.00 0.00 0.00 0.00 0.00 0.00 0.00 0.00 0.00 0.00 0.00 0.00 0.00 0.00 0.00 0.00 0.00 0.00 0.00 0.00 0.00 0.00 0.00 0.00 0.00 0.00 0.00 0.00 0.00 0.00 0.00 0.00 0.00 0.00 0.00 0.00 0.00 0.00 0.00 0.00 0.00 0.00 0.00 0.00 0.00 0.00
0.02 0.02 0.01 0.01 0.01 0.01 0.01 0.01 0.01 0.01 0.01 0.01 0.00 0.00 0.00 0.00 0.00 0.00 0.01 0.00 0.00 0.00 0.00 0.00 0.00 0.00 0.00 0.00 0.00 0.00 0.00 0.00 0.00 0.01 0.00 0.00 0.00 0.01 0.01 0.00 0.00 0.00 0.00 0.00 0.00 0.00 0.00 0.00 0.00 0.00 0.00 0.00 0.00 0.00
0.03 0.01 0.00 0.00 0.00 0.01 0.01 0.01 0.01 0.02 0.02 0.01 0.00 0.01 0.02 0.00 0.00 0.00 0.00 0.00 0.00 0.00 0.00 0.00 0.00 0.03 0.01 0.00 0.00 0.01 0.01 0.00 0.00 0.00 0.00 0.00 0.00 0.01 0.00 0.00 0.00 0.00 0.00 0.00 0.00 0.00 0.00 0.00 0.00 0.00 0.00 0.00 0.00 0.00
0.02 0.01 0.00 0.01 0.01 0.01 0.01 0.01 0.01 0.01 0.02 0.02 0.00 0.00 0.00 0.00 0.00 0.00 0.00 0.00 0.00 0.00 0.00 0.00 0.00 0.03 0.04 0.02 0.00 0.00 0.00 0.00 0.00 0.00 0.00 0.01 0.01 0.00 0.00 0.00 0.00 0.00 0.00 0.00 0.00 0.00 0.00 0.00 0.00 0.00 0.00 0.00 0.00 0.00
0.02 0.01 0.00 0.01 0.01 0.00 0.00 0.01 0.01 0.00 0.01 0.00 0.00 0.00 0.00 0.00 0.00 0.00 0.00 0.00 0.00 0.00 0.00 0.00 0.00 0.03 0.03 0.03 0.02 0.01 0.00 0.00 0.01 0.00 0.00 0.00 0.00 0.00 0.00 0.00 0.00 0.00 0.00 0.00 0.00 0.00 0.00 0.00 0.00 0.00 0.00 0.00 0.01 0.01
0.02 0.02 0.01 0.01 0.01 0.01 0.01 0.01 0.00 0.00 0.00 0.00 0.00 0.00 0.00 0.00 0.01 0.01 0.01 0.01 0.00 0.00 0.00 0.00 0.00 0.01 0.01 0.01 0.03 0.02 0.02 0.01 0.01 0.01 0.00 0.00 0.00 0.00 0.00 0.00 0.00 0.00 0.00 0.00 0.00 0.00 0.00 0.00 0.00 0.00 0.00 0.01 0.01 0.00
0.02 0.02 0.01 0.01 0.01 0.01 0.00 0.00 0.00 0.00 0.00 0.00 0.01 0.01 0.02 0.01 0.01 0.02 0.02 0.01 0.01 0.01 0.01 0.01 0.01 0.00 0.02 0.03 0.02 0.01 0.01 0.02 0.02 0.00 0.00 0.01 0.01 0.00 0.00 0.00 0.00 0.00 0.00 0.00 0.00 0.00 0.00 0.01 0.01 0.00 0.00 0.01 0.01 0.00
0.01 0.00 0.00 0.00 0.00 0.00 0.00 0.00 0.00 0.01 0.00 0.00 0.01 0.02 0.01 0.01 0.02 0.01 0.00 0.00 0.00 0.00 0.01 0.01 0.02 0.03 0.02 0.02 0.01 0.00 0.01 0.01 0.02 0.01 0.00 0.01 0.03 0.02 0.00 0.00 0.00 0.00 0.00 0.00 0.00 0.00 0.00 0.00 0.00 0.00 0.00 0.00 0.00 0.00
0.01 0.00 0.00 0.01 0.00 0.00 0.00 0.00 0.00 0.00 0.00 0.00 0.01 0.01 0.01 0.01 0.00 0.00 0.00 0.01 0.02 0.02 0.02 0.01 0.01 0.01 0.00 0.00 0.00 0.00 0.00 0.00 0.00 0.00 0.01 0.05 0.03 0.00 0.00 0.00 0.00 0.00 0.00 0.00 0.00 0.00 0.00 0.00 0.00 0.00 0.00 0.00 0.00 0.00
0.00 0.00 0.00 0.01 0.01 0.00 0.00 0.00 0.00 0.00 0.00 0.01 0.02 0.01 0.01 0.01 0.01 0.01 0.01 0.02 0.03 0.03 0.00 0.00 0.00 0.01 0.01 0.01 0.00 0.00 0.00 0.00 0.00 0.02 0.06 0.01 0.00 0.00 0.00 0.00 0.00 0.00 0.00 0.00 0.00 0.00 0.00 0.00 0.00 0.00 0.00 0.00 0.00 0.00
0.00 0.00 0.00 0.02 0.01 0.00 0.00 0.00 0.01 0.01 0.00 0.01 0.00 0.00 0.00 0.00 0.00 0.00 0.00 0.00 0.01 0.00 0.00 0.00 0.00 0.02 0.01 0.01 0.00 0.00 0.00 0.01 0.05 0.03 0.02 0.00 0.00 0.00 0.00 0.00 0.00 0.00 0.00 0.00 0.00 0.00 0.00 0.00 0.00 0.00 0.00 0.00 0.00 0.00
0.00 0.03 0.00 0.01 0.01 0.00 0.00 0.02 0.03 0.02 0.01 0.00 0.00 0.00 0.00 0.00 0.00 0.00 0.00 0.00 0.01 0.00 0.00 0.01 0.01 0.01 0.03 0.03 0.01 0.01 0.02 0.02 0.01 0.00 0.00 0.00 0.00 0.00 0.00 0.00 0.00 0.00 0.00 0.00 0.00 0.00 0.00 0.00 0.00 0.00 0.00 0.00 0.00 0.00
0.03 0.02 0.01 0.00 0.00 0.00 0.00 0.00 0.01 0.01 0.00 0.00 0.00 0.00 0.00 0.00 0.00 0.00 0.00 0.03 0.03 0.02 0.01 0.01 0.01 0.01 0.03 0.04 0.06 0.04 0.02 0.00 0.00 0.00 0.00 0.00 0.00 0.00 0.00 0.00 0.00 0.00 0.00 0.00 0.00 0.00 0.00 0.00 0.00 0.00 0.00 0.00 0.00 0.00
0.02 0.00 0.00 0.01 0.00 0.00 0.00 0.01 0.01 0.00 0.00 0.00 0.00 0.00 0.00 0.00 0.00 0.00 0.01 0.01 0.03 0.02 0.01 0.01 0.01 0.00 0.02 0.04 0.06 0.01 0.00 0.01 0.01 0.00 0.00 0.00 0.00 0.00 0.00 0.00 0.00 0.00 0.00 0.00 0.00 0.00 0.00 0.00 0.00 0.00 0.00 0.00 0.00 0.00
0.01 0.00 0.00 0.00 0.00 0.01 0.00 0.00 0.00 0.00 0.01 0.01 0.01 0.00 0.00 0.00 0.01 0.01 0.00 0.00 0.00 0.01 0.00 0.00 0.00 0.01 0.02 0.01 0.02 0.03 0.02 0.01 0.00 0.00 0.00 0.00 0.00 0.00 0.00 0.00 0.00 0.00 0.00 0.00 0.00 0.00 0.00 0.00 0.00 0.00 0.00 0.00 0.00 0.00
0.00 0.01 0.01 0.01 0.00 0.00 0.00 0.00 0.00 0.00 0.00 0.00 0.01 0.01 0.01 0.01 0.02 0.02 0.01 0.01 0.01 0.01 0.00 0.00 0.00 0.01 0.02 0.01 0.00 0.00 0.01 0.00 0.00 0.00 0.00 0.00 0.00 0.00 0.00 0.00 0.00 0.00 0.00 0.00 0.00 0.00 0.00 0.00 0.00 0.00 0.00 0.00 0.00 0.00
0.02 0.01 0.00 0.01 0.00 0.00 0.00 0.00 0.01 0.01 0.01 0.01 0.03 0.02 0.02 0.03 0.02 0.02 0.03 0.02 0.00 0.00 0.00 0.00 0.00 0.01 0.01 0.01 0.00 0.00 0.00 0.00 0.00 0.00 0.00 0.00 0.00 0.00 0.00 0.00 0.00 0.00 0.00 0.00 0.00 0.00 0.00 0.00 0.00 0.00 0.00 0.00 0.00 0.00
0.01 0.03 0.03 0.01 0.00 0.01 0.00 0.00 0.01 0.00 0.01 0.01 0.02 0.03 0.02 0.03 0.03 0.05 0.03 0.00 0.00 0.00 0.00 0.00 0.00 0.00 0.00 0.00 0.00 0.00 0.00 0.00 0.00 0.00 0.00 0.00 0.00 0.00 0.00 0.00 0.00 0.00 0.00 0.00 0.00 0.00 0.00 0.00 0.00 0.00 0.00 0.00 0.00 0.00
0.00 0.00 0.00 0.01 0.00 0.00 0.00 0.00 0.00 0.00 0.00 0.00 0.00 0.00 0.00 0.01 0.01 0.01 0.00 0.00 0.01 0.00 0.00 0.00 0.00 0.00 0.00 0.00 0.00 0.00 0.00 0.00 0.00 0.00 0.00 0.00 0.00 0.00 0.00 0.00 0.00 0.00 0.00 0.00 0.00 0.00 0.00 0.00 0.00 0.00 0.00 0.00 0.00 0.00
0.00 0.00 0.00 0.01 0.01 0.01 0.00 0.00 0.00 0.00 0.00 0.00 0.00 0.00 0.00 0.00 0.00 0.00 0.00 0.00 0.01 0.00 0.00 0.00 0.00 0.00 0.00 0.00 0.00 0.01 0.00 0.00 0.00 0.00 0.00 0.00 0.00 0.00 0.00 0.00 0.00 0.00 0.00 0.00 0.00 0.00 0.00 0.00 0.00 0.00 0.00 0.00 0.00 0.00
0.01 0.01 0.00 0.01 0.02 0.01 0.01 0.00 0.00 0.00 0.00 0.00 0.01 0.00 0.01 0.01 0.01 0.00 0.00 0.01 0.00 0.00 0.00 0.00 0.00 0.00 0.00 0.00 0.00 0.00 0.00 0.00 0.00 0.00 0.00 0.00 0.00 0.00 0.00 0.00 0.00 0.00 0.00 0.00 0.00 0.00 0.00 0.00 0.00 0.00 0.00 0.00 0.00 0.00
0.01 0.01 0.00 0.00 0.01 0.02 0.01 0.01 0.01 0.01 0.00 0.01 0.00 0.01 0.01 0.01 0.00 0.01 0.03 0.02 0.00 0.00 0.00 0.00 0.00 0.00 0.00 0.00 0.00 0.00 0.00 0.00 0.00 0.00 0.00 0.00 0.00 0.00 0.00 0.00 0.00 0.00 0.00 0.00 0.00 0.00 0.00 0.00 0.00 0.00 0.00 0.00 0.00 0.00
0.00 0.00 0.00 0.00 0.00 0.00 0.01 0.01 0.01 0.01 0.00 0.00 0.00 0.01 0.01 0.01 0.02 0.03 0.03 0.01 0.01 0.00 0.00 0.00 0.00 0.00 0.00 0.00 0.00 0.00 0.00 0.00 0.00 0.00 0.00 0.00 0.00 0.00 0.00 0.00 0.00 0.00 0.00 0.00 0.00 0.00 0.00 0.00 0.00 0.00 0.00 0.00 0.00 0.00
0.00 0.00 0.00 0.00 0.01 0.02 0.01 0.01 0.01 0.02 0.02 0.02 0.01 0.02 0.02 0.01 0.01 0.00 0.00 0.00 0.00 0.00 0.00 0.00 0.00 0.00 0.00 0.00 0.00 0.00 0.00 0.00 0.00 0.00 0.00 0.00 0.00 0.00 0.00 0.00 0.00 0.00 0.00 0.00 0.00 0.00 0.00 0.00 0.00 0.00 0.00 0.00 0.00 0.00
0.00 0.00 0.00 0.00 0.01 0.01 0.01 0.01 0.02 0.01 0.00 0.00 0.01 0.01 0.01 0.00 0.00 0.00 0.00 0.00 0.00 0.00 0.00 0.00 0.00 0.00 0.00 0.00 0.00 0.00 0.00 0.00 0.00 0.00 0.00 0.00 0.00 0.00 0.00 0.00 0.00 0.00 0.00 0.00 0.00 0.00 0.00 0.00 0.00 0.00 0.00 0.00 0.00 0.00
0.01 0.01 0.01 0.00 0.00 0.00 0.00 0.00 0.01 0.00 0.00 0.00 0.00 0.01 0.01 0.00 0.00 0.00 0.00 0.00 0.00 0.00 0.00 0.00 0.00 0.00 0.00 0.00 0.00 0.00 0.00 0.00 0.00 0.00 0.00 0.00 0.00 0.00 0.00 0.00 0.00 0.00 0.00 0.00 0.00 0.00 0.00 0.00 0.00 0.00 0.00 0.00 0.00 0.00
0.00 0.00 0.01 0.00 0.00 0.00 0.00 0.00 0.00 0.01 0.01 0.00 0.00 0.01 0.01 0.01 0.00 0.00 0.00 0.00 0.00 0.00 0.00 0.00 0.00 0.00 0.00 0.00 0.00 0.00 0.00 0.00 0.00 0.00 0.00 0.00 0.00 0.00 0.00 0.00 0.00 0.00 0.00 0.00 0.00 0.00 0.00 0.00 0.00 0.00 0.00 0.00 0.00 0.00
0.00 0.00 0.01 0.00 0.00 0.00 0.00 0.00 0.00 0.01 0.01 0.02 0.01 0.01 0.01 0.00 0.00 0.01 0.00 0.00 0.00 0.00 0.00 0.00 0.00 0.00 0.00 0.00 0.00 0.00 0.00 0.00 0.00 0.00 0.00 0.00 0.00 0.00 0.00 0.00 0.00 0.00 0.00 0.00 0.00 0.00 0.00 0.00 0.00 0.00 0.00 0.00 0.00 0.00
MSLP
1004.39 1004.55 1004.69 1004.97 1005.22 1005.43 1005.73 1005.99 1006.16 1006.48 1006.72 1006.91 1007.14 1007.31 1007.75 1008.02 1007.97 1007.61 1008.52 1008.01 1008.19 1009.25 1009.58 1009.36 1009.32 1009.75 1010.18 1010.91 1011.86 1013.06 1013.55 1013.99 1014.67 1015.26 1015.64 1015.53 1014.86 1014.56 1014.33 1014.04 1013.88 1014.47 1015.33 1015.83 1016.29 1016.38 1015.15 1012.74 1012.52 1012.76 1012.78 1012.70 1012.72 1012.93
1004.70 1004.90 1005.24 1005.46 1005.80 1006.21 1006.67 1006.92 1007.16 1007.38 1007.66 1007.83 1008.10 1008.22 1008.17 1008.36 1008.11 1007.91 1008.77 1008.58 1008.42 1009.20 1010.29 1009.96 1009.90 1010.36 1010.71 1010.76 1011.24 1012.13 1012.47 1013.05 1014.42 1015.06 1015.48 1015.29 1015.06 1014.94 1014.81 1014.66 1013.98 1014.21 1014.26 1014.79 1014.77 1014.05 1013.14 1012.30 1012.13 1012.07 1012.17 1012.41 1012.32 1012.66
1004.94 1005.23 1005.53 1005.63 1005.96 1006.37 1006.69 1006.96 1007.25 1007.52 1007.95 1008.17 1008.31 1008.54 1008.30 1008.34 1008.41 1008.13 1008.68 1008.70 1008.92 1009.97 1010.54 1010.61 1010.43 1010.56 1010.79 1010.77 1010.80 1011.65 1012.12 1012.74 1013.84 1013.90 1015.11 1015.36 1015.49 1015.44 1015.44 1014.81 1014.49 1013.85 1013.52 1013.73 1013.77 1012.29 1012.52 1012.18 1011.92 1011.84 1011.92 1011.79 1011.83 1011.83
1005.11 1005.42 1005.73 1006.07 1006.41 1006.82 1007.13 1007.52 1007.73 1008.02 1008.55 1008.69 1008.80 1009.01 1009.15 1009.27 1009.19 1009.06 1009.41 1009.69 1010.03 1010.95 1011.54 1010.93 1010.16 1010.32 1010.36 1010.57 1011.15 1011.72 1012.51 1013.00 1013.64 1014.06 1014.94 1015.64 1016.06 1015.53 1015.69 1015.31 1014.94 1014.38 1013.72 1013.48 1012.97 1012.45 1012.34 1011.63 1011.67 1011.69 1011.71 1011.70 1011.55 1011.60
1005.18 1005.48 1005.88 1006.27 1006.64 1007.00 1007.36 1007.72 1008.15 1008.55 1008.88 1009.10 1009.40 1009.66 1009.83 1010.00 1010.07 1010.21 1010.56 1010.83 1011.08 1011.98 1012.40 1012.04 1011.21 1010.72 1010.66 1011.07 1011.65 1012.22 1013.01 1013.81 1014.51 1015.18 1015.72 1015.95 1015.62 1015.99 1015.67 1015.40 1014.21 1013.73 1013.27 1013.38 1012.65 1012.45 1012.40 1011.82 1011.51 1011.27 1011.40 1011.43 1011.36 1011.40
1005.26 1005.48 1005.86 1006.33 1006.71 1007.16 1007.62 1008.04 1008.51 1008.93 1009.33 1009.69 1010.05 1010.34 1010.62 1010.80 1010.96 1011.38 1011.93 1011.83 1011.66 1011.88 1012.90 1012.91 1011.78 1011.10 1011.13 1011.48 1012.18 1012.80 1013.41 1014.16 1014.99 1015.61 1015.92 1015.62 1015.27 1015.52 1015.39 1014.11 1012.40 1012.71 1012.69 1012.41 1011.98 1011.83 1011.66 1011.24 1011.04 1010.97 1010.87 1010.67 1010.63 1010.85
1005.33 1005.60 1005.94 1006.39 1006.84 1007.44 1007.83 1008.23 1008.69 1009.16 1009.65 1010.13 1010.52 1010.86 1011.22 1011.50 1011.74 1012.21 1012.57 1012.57 1012.09 1012.44 1013.58 1013.41 1012.49 1011.19 1011.20 1011.94 1012.77 1013.28 1013.59 1014.27 1014.95 1015.71 1015.61 1015.43 1015.24 1015.12 1014.41 1012.67 1011.22 1011.83 1011.63 1011.37 1011.13 1011.15 1010.95 1010.73 1010.51 1010.40 1010.36 1010.21 1010.14 1010.34
1005.43 1005.86 1006.30 1006.80 1007.18 1007.47 1007.84 1008.30 1008.85 1009.40 1009.99 1010.54 1011.00 1011.38 1011.77 1012.13 1012.45 1012.64 1012.66 1012.44 1012.57 1013.61 1014.02 1013.94 1012.88 1012.23 1011.68 1012.73 1013.68 1013.95 1014.61 1015.16 1015.18 1015.41 1015.00 1014.72 1014.64 1014.39 1012.90 1010.22 1010.48 1010.55 1010.45 1010.25 1010.08 1009.93 1009.88 1010.00 1009.93 1009.81 1009.67 1009.64 1009.66 1009.79
1005.80 1006.27 1006.67 1006.94 1007.41 1007.44 1007.89 1008.40 1009.00 1009.57 1010.17 1010.82 1011.41 1011.93 1012.32 1012.46 1012.70 1013.06 1012.95 1013.13 1013.44 1014.29 1014.31 1014.02 1013.30 1013.03 1012.65 1013.07 1013.90 1014.48 1014.59 1015.24 1014.99 1014.90 1014.27 1014.08 1013.40 1012.21 1009.92 1009.62 1009.25 1009.09 1009.08 1008.83 1008.69 1008.70 1009.03 1009.46 1009.81 1009.78 1009.65 1009.57 1009.52 1009.58
1006.19 1006.73 1007.03 1007.13 1007.45 1007.81 1008.21 1008.68 1009.42 1009.95 1010.48 1011.15 1011.95 1012.27 1012.65 1012.92 1013.02 1013.19 1013.75 1014.16 1014.46 1014.67 1014.70 1014.10 1012.79 1012.71 1012.79 1013.18 1013.67 1014.30 1014.63 1014.53 1014.02 1013.18 1012.81 1012.67 1011.34 1009.75 1008.74 1008.33 1008.29 1008.11 1007.82 1007.77 1007.91 1008.30 1008.59 1009.04 1009.67 1008.97 1008.95 1008.86 1009.08 1009.29
1006.55 1007.05 1007.48 1007.50 1007.91 1008.33 1008.59 1009.07 1009.84 1010.64 1011.19 1011.35 1011.71 1012.38 1013.02 1013.14 1013.41 1013.57 1013.72 1014.06 1014.17 1014.21 1013.71 1012.88 1012.33 1012.14 1012.17 1012.68 1013.08 1013.59 1013.51 1013.40 1013.00 1012.35 1012.22 1011.40 1010.02 1008.35 1007.35 1007.26 1007.00 1007.05 1007.05 1007.08 1007.25 1007.53 1008.08 1008.69 1008.57 1008.80 1008.62 1009.09 1009.02 1009.28
1006.83 1007.47 1008.04 1008.51 1008.69 1009.12 1009.61 1010.13 1010.51 1010.73 1011.07 1011.21 1011.77 1012.30 1013.06 1013.27 1013.34 1013.36 1013.01 1012.87 1012.84 1012.19 1011.86 1011.47 1011.19 1011.48 1011.66 1011.82 1012.50 1012.97 1012.84 1012.57 1012.17 1011.97 1011.82 1010.35 1009.30 1008.22 1007.42 1007.23 1007.28 1006.98 1005.90 1006.58 1007.00 1007.53 1007.72 1008.09 1008.01 1008.04 1008.54 1009.49 1009.96 1010.53
1007.47 1008.01 1008.55 1009.01 1009.35 1009.75 1010.15 1010.61 1011.12 1011.04 1011.09 1011.49 1012.03 1012.50 1012.80 1012.88 1012.72 1012.55 1012.19 1011.74 1011.41 1010.92 1010.91 1011.00 1011.17 1011.29 1011.59 1011.80 1012.28 1012.34 1012.16 1011.88 1011.67 1011.52 1010.48 1009.02 1008.80 1008.54 1008.27 1007.98 1008.06 1008.08 1007.83 1007.79 1008.18 1008.35 1008.31 1008.25 1008.14 1008.48 1009.42 1010.19 1010.76 1011.57
1008.20 1008.69 1009.17 1009.60 1009.95 1010.32 1010.70 1011.13 1011.39 1011.53 1011.86 1012.16 1012.30 1012.48 1012.48 1012.09 1011.81 1011.44 1011.23 1011.19 1010.80 1010.83 1011.03 1011.12 1011.42 1011.63 1011.76 1011.99 1012.12 1012.23 1011.61 1011.38 1011.27 1010.69 1009.64 1009.37 1009.41 1009.20 1009.30 1009.41 1009.37 1009.59 1009.44 1009.39 1009.47 1009.56 1009.50 1009.47 1009.74 1009.92 1010.25 1010.92 1011.35 1012.17
1008.90 1009.27 1009.60 1009.93 1010.38 1010.77 1011.14 1011.59 1011.78 1012.09 1012.48 1012.37 1012.20 1011.99 1011.84 1011.42 1011.23 1011.13 1010.96 1010.88 1010.75 1010.90 1011.21 1011.51 1011.61 1011.65 1011.95 1012.05 1012.09 1012.02 1011.85 1011.37 1010.66 1009.97 1009.56 1009.65 1009.57 1009.60 1009.91 1010.27 1010.45 1010.55 1010.60 1010.60 1010.59 1010.56 1010.55 1010.63 1010.78 1011.00 1011.20 1011.63 1011.97 1012.56
1009.35 1009.80 1010.02 1010.33 1010.66 1011.03 1011.40 1011.82 1012.13 1012.34 1012.33 1011.93 1011.81 1011.78 1011.56 1011.58 1011.45 1011.37 1011.36 1011.26 1010.95 1011.33 1011.38 1011.62 1011.55 1011.56 1011.49 1011.41 1011.71 1011.44 1011.20 1010.53 1010.10 1010.10 1009.98 1009.85 1009.91 1010.19 1010.48 1011.01 1011.20 1011.22 1011.27 1011.37 1011.36 1011.35 1011.33 1011.38 1011.57 1011.80 1012.06 1012.36 1012.70 1013.17
1009.48 1009.49 1009.82 1010.40 1010.78 1011.16 1011.51 1011.85 1011.91 1012.10 1011.90 1011.63 1011.55 1011.45 1011.63 1011.63 1011.53 1011.45 1011.12 1010.95 1010.62 1011.26 1011.58 1011.49 1011.43 1010.92 1010.38 1010.55 1010.54 1010.23 1010.30 1010.04 1009.84 1009.96 1010.14 1010.24 1010.19 1010.53 1010.84 1011.38 1011.64 1011.59 1011.62 1011.70 1011.77 1011.87 1011.99 1012.08 1012.14 1012.39 1012.71 1013.15 1013.50 1013.92
1009.88 1009.76 1010.05 1010.61 1011.06 1011.43 1011.72 1012.02 1011.96 1011.52 1011.12 1010.91 1011.21 1011.19 1011.25 1011.22 1011.26 1011.20 1010.65 1010.51 1010.89 1011.01 1011.22 1011.09 1011.17 1010.86 1010.24 1009.85 1009.83 1010.12 1010.02 1009.80 1009.86 1009.91 1010.15 1010.48 1010.59 1010.74 1010.98 1011.35 1011.67 1011.70 1011.81 1011.92 1012.03 1012.18 1012.25 1012.30 1012.31 1012.77 1013.17 1013.63 1014.03 1014.30
1010.41 1010.59 1010.88 1010.94 1010.94 1011.02 1011.27 1011.49 1011.56 1011.28 1010.51 1010.24 1010.28 1010.31 1010.47 1010.65 1010.50 1010.51 1010.47 1010.43 1010.40 1010.59 1010.80 1011.02 1011.00 1010.74 1010.47 1010.26 1010.41 1010.16 1009.90 1009.73 1009.99 1010.12 1010.28 1010.52 1010.60 1010.86 1011.09 1011.38 1011.64 1011.75 1012.01 1012.15 1012.20 1012.25 1012.29 1012.30 1012.52 1012.85 1013.34 1013.75 1014.06 1014.50
1010.65 1010.68 1010.86 1011.12 1011.50 1011.55 1011.47 1011.14 1010.87 1010.70 1010.08 1009.63 1009.70 1009.91 1010.11 1010.04 1009.99 1010.04 1010.25 1010.32 1010.60 1010.82 1010.88 1010.76 1010.45 1010.05 1010.07 1010.20 1009.91 1010.07 1009.72 1009.68 1009.66 1010.03 1010.39 1010.55 1010.71 1010.94 1011.16 1011.36 1011.48 1011.58 1011.76 1011.88 1011.99 1012.12 1012.31 1012.44 1012.58 1012.86 1013.15 1013.50 1014.01 1014.47
1010.62 1010.80 1010.99 1011.28 1011.98 1011.99 1011.66 1010.78 1010.70 1010.02 1009.59 1009.38 1009.24 1009.54 1009.66 1009.51 1009.65 1009.88 1010.06 1010.07 1010.61 1010.45 1010.22 1009.85 1009.70 1009.53 1009.50 1009.57 1009.24 1009.35 1009.58 1009.54 1009.70 1009.75 1009.99 1010.50 1010.67 1010.74 1010.94 1011.07 1011.07 1011.31 1011.55 1011.79 1012.07 1012.20 1012.40 1012.54 1012.75 1012.90 1013.26 1013.61 1013.88 1014.25
1010.23 1010.52 1011.14 1011.77 1011.71 1011.82 1011.39 1010.35 1009.79 1009.78 1009.50 1009.13 1009.06 1009.14 1009.30 1009.25 1009.23 1009.32 1009.34 1009.82 1009.84 1009.40 1009.05 1009.08 1008.96 1008.97 1009.08 1009.39 1009.40 1009.28 1009.39 1009.37 1009.44 1009.58 1009.78 1010.01 1010.42 1010.72 1010.89 1011.06 1011.16 1011.37 1011.44 1011.59 1011.82 1012.09 1012.31 1012.48 1012.69 1013.03 1013.32 1013.73 1014.04 1014.41
1010.53 1010.45 1010.63 1011.27 1011.60 1011.20 1010.37 1009.51 1009.54 1009.20 1009.12 1008.87 1008.70 1008.85 1008.88 1008.74 1008.49 1008.29 1009.10 1009.02 1008.97 1008.33 1008.38 1008.54 1008.59 1008.64 1009.03 1009.13 1009.20 1009.26 1009.24 1009.35 1009.74 1009.79 1009.84 1009.99 1010.07 1010.25 1010.49 1010.69 1010.97 1011.13 1011.31 1011.41 1011.45 1011.75 1012.07 1012.23 1012.61 1013.00 1013.27 1013.72 1014.09 1014.45
1011.07 1011.01 1010.94 1010.77 1010.76 1010.50 1010.13 1009.80 1009.43 1009.16 1008.74 1008.76 1008.75 1008.71 1008.48 1008.53 1008.47 1008.67 1008.80 1008.67 1008.63 1008.45 1008.62 1008.93 1008.93 1009.11 1009.15 1009.21 1009.36 1009.35 1009.29 1009.37 1009.54 1009.57 1009.70 1009.84 1010.22 1010.29 1010.39 1010.65 1010.83 1010.71 1010.85 1011.03 1011.28 1011.57 1011.83 1012.14 1012.47 1012.88 1013.19 1013.54 1013.88 1014.25
1011.52 1011.53 1011.43 1010.79 1010.53 1010.56 1010.23 1009.91 1009.46 1009.16 1009.11 1008.90 1008.90 1008.74 1008.59 1008.50 1008.85 1008.91 1008.75 1008.84 1009.00 1009.37 1009.38 1009.40 1009.44 1009.43 1009.64 1009.53 1009.66 1009.45 1009.40 1009.63 1009.86 1010.09 1009.91 1009.91 1009.99 1010.17 1010.48 1010.67 1010.67 1010.45 1010.52 1010.87 1011.14 1011.31 1011.67 1011.87 1012.19 1012.50 1012.86 1013.22 1013.59 1013.94
1011.17 1011.21 1011.24 1010.58 1010.31 1010.21 1009.88 1009.70 1009.50 1009.25 1009.03 1009.11 1009.02 1008.81 1008.77 1009.10 1009.21 1009.08 1008.47 1008.88 1009.20 1009.59 1009.87 1009.74 1009.82 1009.96 1010.06 1010.00 1010.27 1010.41 1010.38 1010.05 1009.99 1010.20 1010.24 1010.09 1010.24 1010.37 1010.62 1010.86 1010.98 1010.82 1010.41 1010.42 1010.67 1010.94 1011.29 1011.57 1011.81 1012.08 1012.42 1012.77 1013.12 1013.51
1012.00 1012.08 1011.49 1011.20 1010.73 1010.25 1009.96 1009.74 1009.48 1009.35 1009.29 1009.29 1009.12 1009.21 1009.47 1009.67 1009.54 1008.92 1008.58 1008.68 1009.05 1009.39 1009.68 1009.84 1009.91 1010.29 1010.69 1010.83 1010.83 1010.85 1010.75 1010.65 1010.75 1010.83 1010.57 1010.34 1010.27 1010.20 1010.33 1010.70 1011.00 1010.62 1010.10 1010.25 1010.44 1010.64 1010.81 1011.05 1011.27 1011.53 1011.82 1012.12 1012.42 1012.79
1013.59 1013.48 1013.33 1012.64 1011.81 1010.57 1010.35 1010.10 1009.89 1009.65 1009.28 1008.96 1009.02 1009.34 1009.39 1009.59 1009.89 1009.70 1009.57 1009.42 1009.36 1009.72 1010.11 1010.55 1010.79 1010.78 1010.98 1011.14 1011.24 1011.22 1011.14 1011.09 1010.91 1010.57 1010.32 1010.35 1010.52 1010.63 1010.66 1010.67 1010.56 1010.43 1010.36 1010.16 1010.33 1010.48 1010.57 1010.52 1010.64 1010.83 1011.10 1011.41 1011.74 1012.08
1014.80 1014.45 1013.82 1012.83 1011.94 1010.99 1010.59 1010.41 1010.01 1009.39 1009.13 1008.92 1009.18 1009.23 1009.66 1010.44 1010.94 1010.63 1010.39 1010.15 1010.13 1010.47 1010.94 1011.33 1011.53 1011.47 1011.41 1011.42 1011.41 1011.33 1011.31 1011.36 1011.36 1011.24 1011.32 1011.19 1011.18 1011.20 1011.07 1010.97 1010.87 1010.72 1010.61 1010.43 1010.31 1010.33 1010.32 1010.37 1010.28 1010.31 1010.45 1010.72 1010.95 1011.33
1016.05 1015.68 1014.92 1013.91 1012.78 1011.68 1011.96 1011.46 1011.00 1010.21 1009.61 1009.40 1009.52 1009.74 1010.55 1011.39 1011.57 1011.29 1011.09 1011.12 1011.35 1011.53 1011.76 1011.89 1011.98 1011.97 1011.99 1011.93 1011.89 1011.84 1011.90 1012.04 1012.04 1012.10 1011.94 1011.75 1011.70 1011.48 1011.26 1011.11 1010.92 1010.70 1010.52 1010.34 1010.28 1010.19 1010.05 1010.10 1010.05 1010.08 1010.13 1010.25 1010.48 1010.77
1016.63 1016.09 1015.17 1014.77 1013.79 1012.81 1012.26 1011.62 1010.81 1010.10 1009.95 1009.59 1009.52 1009.88 1011.06 1011.76 1012.25 1012.55 1012.45 1012.43 1012.55 1012.72 1012.68 1012.76 1012.78 1012.68 1012.55 1012.56 1012.48 1012.37 1012.51 1012.58 1012.49 1012.42 1012.30 1012.00 1011.68 1011.40 1011.16 1010.98 1010.77 1010.55 1010.38 1010.18 1010.03 1009.94 1009.87 1009.84 1009.74 1009.73 1009.79 1009.87 1010.00 1010.22
1016.88 1016.48 1016.08 1015.32 1014.33 1013.32 1012.59 1012.13 1011.36 1010.39 1009.69 1009.70 1009.66 1009.95 1010.95 1011.47 1012.65 1014.05 1014.45 1014.04 1014.04 1014.13 1014.07 1013.85 1013.60 1013.33 1013.16 1013.00 1013.11 1013.04 1013.01 1013.04 1012.82 1012.57 1012.31 1012.07 1011.78 1011.55 1011.24 1010.96 1010.66 1010.43 1010.17 1010.03 1009.88 1009.72 1009.63 1009.60 1009.58 1009.59 1009.82 1009.87 1009.83 1009.95
1017.00 1016.45 1015.96 1015.43 1014.62 1013.95 1013.44 1013.11 1011.84 1010.46 1009.78 1009.59 1009.64 1009.94 1010.68 1011.83 1013.40 1014.84 1015.95 1015.62 1015.65 1015.51 1015.20 1014.76 1014.19 1013.93 1013.82 1013.77 1013.74 1013.52 1013.34 1013.12 1012.84 1012.58 1012.29 1012.04 1011.83 1011.54 1011.20 1010.93 1010.69 1010.45 1010.11 1009.91 1009.77 1009.64 1009.45 1009.30 1009.25 1009.27 1009.38 1009.47 1009.53 1009.61
Thickness
5341 5342 5344 5345 5347 5348 5349 5351 5355 5356 5355 5355 5355 5356 5356 5357 5359 5370 5368 5379 5384 5375 5385 5395 5398 5401 5403 5393 5389 5397 5387 5389 5385 5388 5389 5393 5395 5415 5425 5427 5436 5425 5412 5408 5388 5378 5392 5466 5464 5445 5435 5444 5447 5449
5338 5338 5337 5338 5337 5336 5334 5336 5338 5340 5341 5344 5346 5350 5356 5355 5361 5367 5362 5370 5375 5370 5370 5382 5385 5386 5388 5394 5395 5394 5387 5393 5379 5374 5379 5387 5400 5395 5408 5399 5432 5403 5411 5402 5408 5402 5431 5447 5443 5444 5437 5435 5444 5439
5332 5332 5332 5335 5335 5333 5333 5334 5335 5337 5337 5340 5341 5344 5352 5355 5358 5366 5366 5371 5372 5366 5365 5369 5374 5382 5382 5386 5390 5381 5389 5394 5389 5389 5369 5372 5383 5389 5379 5384 5406 5413 5423 5405 5409 5436 5425 5427 5433 5434 5431 5430 5437 5438
5327 5327 5328 5328 5328 5327 5327 5326 5328 5329 5328 5332 5336 5337 5340 5344 5348 5354 5355 5358 5360 5356 5344 5362 5379 5380 5382 5383 5384 5383 5379 5381 5380 5379 5360 5356 5358 5377 5358 5370 5365 5381 5396 5392 5390 5406 5409 5424 5419 5419 5417 5417 5424 5428
5323 5323 5323 5323 5324 5324 5324 5324 5323 5322 5323 5325 5327 5329 5332 5334 5337 5341 5343 5345 5348 5341 5330 5342 5363 5371 5375 5374 5374 5372 5367 5363 5358 5346 5342 5343 5359 5349 5342 5346 5368 5384 5381 5365 5377 5387 5385 5397 5405 5409 5408 5409 5412 5414
5316 5317 5318 5318 5320 5320 5320 5319 5318 5318 5317 5318 5318 5320 5322 5324 5327 5328 5322 5333 5338 5340 5326 5321 5353 5364 5365 5365 5363 5361 5358 5354 5348 5334 5330 5347 5360 5339 5329 5349 5386 5377 5371 5371 5370 5380 5379 5386 5393 5397 5399 5405 5407 5405
5305 5309 5311 5313 5315 5315 5316 5316 5316 5315 5314 5313 5313 5314 5315 5317 5320 5317 5321 5323 5330 5332 5318 5314 5327 5359 5363 5357 5347 5348 5352 5339 5338 5327 5330 5337 5335 5335 5331 5352 5377 5362 5361 5359 5358 5360 5362 5375 5381 5391 5394 5398 5402 5404
5296 5299 5303 5306 5309 5312 5313 5314 5313 5312 5311 5310 5309 5310 5310 5311 5312 5314 5317 5321 5324 5317 5315 5316 5326 5333 5354 5328 5324 5331 5323 5330 5330 5324 5331 5330 5336 5326 5340 5369 5364 5361 5358 5357 5356 5358 5364 5372 5379 5384 5388 5391 5395 5399
5288 5292 5297 5302 5305 5310 5311 5312 5311 5311 5309 5307 5306 5305 5306 5308 5306 5309 5312 5314 5315 5311 5313 5318 5318 5315 5334 5331 5323 5317 5328 5327 5324 5331 5338 5332 5332 5336 5362 5363 5365 5365 5363 5365 5366 5368 5369 5367 5367 5371 5378 5385 5393 5394
5286 5289 5294 5299 5302 5305 5307 5308 5307 5307 5306 5304 5302 5303 5296 5303 5306 5307 5302 5302 5304 5305 5304 5312 5327 5321 5328 5330 5329 5320 5321 5325 5329 5342 5342 5338 5347 5369 5374 5375 5372 5370 5374 5375 5374 5371 5375 5372 5369 5375 5382 5391 5394 5393
5287 5288 5290 5295 5298 5299 5303 5304 5302 5301 5299 5301 5300 5295 5299 5300 5300 5301 5305 5305 5305 5310 5310 5319 5327 5325 5338 5325 5330 5332 5334 5336 5341 5345 5349 5354 5366 5377 5387 5383 5384 5384 5384 5388 5387 5385 5383 5376 5380 5381 5388 5391 5395 5393
5288 5287 5287 5287 5289 5291 5293 5294 5294 5296 5298 5301 5300 5300 5297 5299 5301 5306 5311 5316 5319 5329 5332 5337 5339 5334 5339 5342 5333 5333 5340 5340 5352 5345 5347 5360 5370 5378 5391 5390 5382 5383 5399 5395 5394 5393 5394 5392 5390 5394 5394 5382 5376 5372
5287 5285 5283 5283 5284 5284 5285 5287 5288 5292 5296 5296 5297 5298 5299 5302 5308 5309 5296 5326 5321 5339 5340 5337 5333 5338 5339 5339 5331 5335 5340 5341 5345 5344 5362 5373 5379 5380 5379 5383 5378 5375 5380 5380 5377 5377 5379 5382 5385 5385 5377 5372 5368 5364
5285 5282 5279 5277 5276 5277 5278 5279 5282 5285 5286 5289 5293 5288 5295 5304 5308 5315 5323 5326 5332 5332 5334 5330 5330 5329 5332 5333 5333 5333 5345 5349 5343 5349 5375 5371 5369 5369 5365 5364 5364 5360 5363 5365 5365 5367 5368 5370 5369 5369 5368 5364 5362 5355
5280 5277 5274 5270 5268 5269 5271 5273 5276 5278 5279 5287 5294 5299 5304 5312 5317 5321 5325 5327 5334 5336 5328 5327 5327 5330 5333 5334 5330 5336 5333 5334 5354 5347 5362 5363 5363 5367 5361 5357 5356 5354 5354 5355 5356 5357 5358 5358 5359 5358 5358 5355 5353 5349
5278 5273 5266 5255 5256 5264 5269 5271 5274 5277 5280 5292 5299 5301 5306 5309 5315 5324 5323 5320 5333 5326 5327 5331 5336 5335 5342 5345 5340 5336 5355 5351 5354 5356 5360 5360 5360 5357 5354 5348 5347 5348 5347 5346 5347 5348 5349 5349 5348 5347 5346 5345 5344 5341
5280 5280 5275 5268 5266 5268 5271 5274 5279 5282 5288 5300 5296 5302 5303 5311 5314 5320 5324 5323 5335 5329 5328 5329 5334 5346 5348 5352 5360 5358 5344 5354 5355 5351 5355 5353 5358 5351 5348 5342 5339 5342 5342 5342 5342 5339 5338 5338 5339 5339 5336 5333 5333 5329
5279 5282 5281 5277 5275 5275 5276 5277 5280 5290 5303 5302 5299 5301 5307 5311 5319 5321 5323 5330 5330 5332 5330 5338 5333 5346 5337 5357 5353 5356 5354 5354 5350 5353 5349 5348 5346 5344 5343 5341 5337 5339 5338 5335 5335 5333 5331 5333 5336 5331 5329 5326 5323 5321
5275 5276 5277 5278 5280 5283 5284 5285 5288 5293 5302 5307 5309 5312 5315 5318 5320 5323 5324 5329 5332 5334 5333 5328 5334 5337 5335 5338 5340 5346 5347 5346 5347 5343 5339 5345 5343 5339 5337 5335 5333 5334 5331 5330 5329 5329 5327 5331 5328 5326 5323 5320 5317 5314
5274 5276 5277 5278 5277 5280 5281 5286 5294 5298 5307 5312 5315 5315 5316 5317 5319 5319 5322 5327 5325 5325 5326 5328 5329 5332 5336 5330 5339 5341 5344 5346 5343 5342 5341 5336 5335 5336 5334 5332 5330 5330 5328 5328 5327 5326 5324 5324 5322 5321 5318 5316 5313 5309
5273 5274 5275 5276 5272 5275 5282 5291 5291 5304 5310 5313 5315 5317 5316 5322 5319 5324 5321 5327 5321 5322 5325 5330 5326 5328 5337 5333 5337 5339 5339 5341 5340 5340 5338 5336 5333 5330 5328 5334 5332 5328 5325 5322 5319 5319 5318 5316 5315 5314 5311 5310 5308 5305
5274 5274 5272 5270 5274 5274 5280 5292 5302 5301 5308 5315 5317 5320 5317 5313 5318 5322 5327 5320 5322 5329 5329 5329 5331 5336 5337 5334 5332 5338 5337 5340 5342 5336 5336 5335 5334 5332 5330 5329 5326 5324 5323 5321 5318 5316 5314 5312 5309 5307 5306 5303 5301 5298
5268 5272 5274 5271 5270 5276 5286 5299 5300 5308 5307 5310 5317 5319 5317 5317 5323 5330 5320 5326 5323 5330 5332 5335 5337 5337 5331 5332 5333 5333 5335 5335 5331 5331 5331 5331 5332 5331 5329 5328 5326 5323 5320 5318 5317 5315 5312 5309 5306 5303 5301 5298 5296 5293
5257 5261 5264 5270 5274 5273 5283 5286 5296 5302 5309 5310 5312 5313 5319 5310 5319 5314 5317 5320 5320 5324 5324 5327 5326 5323 5322 5327 5324 5323 5326 5328 5327 5325 5327 5328 5327 5326 5326 5323 5320 5322 5321 5319 5315 5312 5309 5306 5303 5299 5297 5295 5292 5289
5249 5252 5254 5263 5267 5267 5269 5279 5286 5296 5288 5295 5301 5294 5301 5306 5297 5302 5313 5311 5310 5308 5306 5308 5311 5310 5308 5311 5313 5315 5321 5319 5319 5316 5318 5322 5321 5320 5319 5320 5317 5319 5317 5316 5314 5310 5305 5304 5301 5298 5295 5292 5289 5286
5247 5247 5246 5258 5262 5265 5273 5269 5268 5274 5285 5282 5285 5296 5293 5288 5288 5288 5309 5298 5296 5290 5291 5292 5299 5298 5304 5303 5302 5300 5301 5306 5308 5304 5307 5311 5311 5303 5304 5307 5308 5309 5311 5310 5310 5308 5303 5301 5299 5296 5293 5290 5287 5284
5231 5228 5241 5246 5254 5262 5262 5267 5276 5272 5271 5269 5276 5275 5275 5271 5268 5291 5290 5293 5289 5286 5287 5288 5290 5288 5285 5284 5285 5286 5288 5290 5291 5291 5293 5297 5299 5300 5298 5295 5294 5298 5302 5303 5302 5302 5301 5298 5296 5294 5292 5289 5286 5283
5210 5211 5204 5218 5230 5250 5248 5250 5252 5253 5261 5273 5273 5265 5267 5270 5271 5275 5277 5278 5280 5278 5275 5272 5270 5273 5272 5274 5274 5276 5276 5277 5280 5283 5283 5284 5284 5284 5284 5283 5284 5286 5288 5291 5291 5291 5291 5293 5293 5291 5289 5287 5284 5282
5190 5196 5202 5211 5221 5235 5235 5239 5246 5256 5257 5260 5258 5261 5263 5255 5250 5255 5259 5262 5264 5262 5260 5258 5257 5260 5260 5262 5262 5264 5265 5266 5266 5269 5262 5258 5266 5271 5270 5271 5272 5274 5275 5277 5279 5279 5281 5282 5284 5286 5285 5284 5282 5280
5170 5176 5184 5193 5209 5223 5213 5221 5225 5237 5243 5248 5249 5252 5244 5237 5237 5241 5244 5246 5245 5245 5245 5245 5245 5246 5246 5247 5248 5250 5251 5249 5250 5251 5252 5254 5255 5257 5259 5260 5263 5264 5266 5269 5270 5271 5273 5274 5276 5277 5278 5278 5277 5276
5158 5164 5174 5178 5186 5201 5206 5213 5223 5232 5234 5236 5240 5241 5228 5226 5223 5221 5224 5226 5227 5227 5229 5229 5230 5231 5233 5233 5234 5235 5235 5235 5236 5237 5238 5241 5244 5247 5249 5251 5253 5256 5258 5261 5263 5265 5266 5268 5270 5272 5272 5273 5273 5272
5145 5150 5155 5159 5173 5186 5195 5199 5204 5217 5229 5229 5235 5233 5227 5225 5214 5201 5199 5205 5207 5207 5209 5213 5216 5219 5221 5222 5222 5222 5222 5222 5223 5226 5228 5230 5233 5235 5238 5241 5244 5247 5250 5252 5255 5258 5260 5261 5262 5264 5261 5263 5264 5265
5132 5141 5148 5150 5158 5169 5178 5181 5194 5213 5219 5225 5229 5231 5220 5210 5200 5190 5180 5186 5188 5190 5194 5198 5204 5206 5207 5207 5207 5208 5211 5212 5214 5217 5219 5221 5222 5225 5228 5231 5233 5237 5240 5243 5245 5248 5251 5253 5255 5256 5256 5255 5256 5257